Home   Weather   Lafayette   Past weeks

Flag for USA Past Weather in Lafayette, Louisiana, USA — Yesterday and Last 2 Weeks

Now
80 °F

Sunny.


Feels Like: 80 °F
Forecast: 56 / 81 °F
Wind: 6 mph from North

Location: Lafayette Regional Airport

Current Time: Sep 30, 2016 at 1:37:06 PM

Latest Report: Sep 30, 2016 at 12:53 PM


Visibility: 10 mi

Pressure: 30.13 "Hg

Humidity: 41%

Dew Point: 54 °F

Location of LafayetteLocation

Past Weather in Lafayette — Graph

°F

Lafayette Temperature Yesterday

Maximum temperature yesterday: 84 °F (at 3:53 PM)
Minimum temperature yesterday: 64 °F (at 10:53 PM)
Average temperature yesterday: 74 °F

High & Low Weather Summary for the Past Weeks

 TemperatureHumidityPressure
High94 °F (Sep 19, 1:53 PM)96% (Sep 17, 6:53 AM)30.16 "Hg (Sep 17, 6:53 AM)
Low58 °F (Sep 30, 5:53 AM)38% (Sep 29, 4:53 PM)29.91 "Hg (Sep 18, 5:53 PM)
Average80 °F76%30.00 "Hg
* Reported Sep 15 11:53 AM — Sep 30 11:53 AM, Lafayette, Weather by CustomWeather, © 2016

Note: Actual official high and low records may vary slightly from our data, if they occured in-between our weather recording intervals... More about our weather records

Advertising

Lafayette Weather History for the Previous 24 Hours

Scroll right to see more
 ConditionsComfort  
Time TempWeatherWind HumidityBarometerVisibility
11:53 AM
Fri, Sep 30
78 °FSunny.5 mph45%30.15 "Hg10 mi
10:53 AM75 °FSunny.6 mph55%30.16 "Hg10 mi
9:53 AM71 °FSunny.9 mph63%30.16 "Hg10 mi
8:53 AM65 °FSunny.7 mph76%30.15 "Hg10 mi
7:53 AM61 °FSunny.5 mph83%30.13 "Hg10 mi
6:53 AM58 °FClear.5 mph90%30.11 "Hg10 mi
5:53 AM58 °FClear.5 mph87%30.11 "Hg10 mi
4:53 AM59 °FClear.6 mph84%30.10 "Hg10 mi
3:53 AM60 °FClear.3 mph80%30.09 "Hg10 mi
2:53 AM59 °FClear.5 mph87%30.10 "Hg10 mi
1:53 AM60 °FClear.6 mph83%30.11 "Hg10 mi
12:53 AM63 °FClear.7 mph75%30.12 "Hg10 mi
11:53 PM
Thu, Sep 29
65 °FClear.9 mph68%30.14 "Hg10 mi
10:53 PM64 °FClear.7 mph70%30.14 "Hg10 mi
9:53 PM66 °FClear.5 mph68%30.14 "Hg10 mi
8:53 PM69 °FClear.8 mph57%30.12 "Hg10 mi
7:53 PM72 °FClear.8 mph53%30.10 "Hg10 mi
6:53 PM75 °FSunny.9 mph50%30.09 "Hg10 mi
5:53 PM80 °FSunny.15 mph41%30.07 "Hg10 mi
4:53 PM82 °FSunny.15 mph38%30.06 "Hg10 mi
3:53 PM84 °FSunny.10 mph43%30.06 "Hg10 mi
2:53 PM83 °FSunny.16 mph46%30.07 "Hg10 mi
1:53 PM83 °FSunny.13 mph50%30.09 "Hg10 mi
Weather by CustomWeather, © 2016

See weather overviewHow to use our weather pages